timestamp,surface_pressure_avg,surface_temp_avg,battery_voltage,lat,long
2021-11-27 00:09:00+00:00,253.9198,8.5,12.81,47.84626,-54.09684
2021-11-27 00:19:00+00:00,253.5714,8.5,12.81,47.84626,-54.09684
2021-11-27 00:29:00+00:00,258.9364,8.5,12.81,47.84626,-54.09684
2021-11-27 00:39:00+00:00,263.7331,8.5,12.81,47.84626,-54.09684
2021-11-27 00:49:00+00:00,260.6548,8.49,12.81,47.84626,-54.09684
2021-11-27 00:59:00+00:00,261.5231,8.5,12.81,47.84626,-54.09684
2021-11-27 01:09:00+00:00,263.8531,8.5,12.81,47.84626,-54.09684
2021-11-27 01:19:00+00:00,262.1681,8.5,12.81,47.84626,-54.09684
2021-11-27 01:29:00+00:00,259.138,8.5,12.81,47.84626,-54.09684
2021-11-27 01:39:00+00:00,268.3964,8.5,12.81,47.84626,-54.09684
2021-11-27 01:49:00+00:00,274.8615,8.49,12.81,47.84626,-54.09684
2021-11-27 01:59:00+00:00,274.1248,8.48,12.81,47.84626,-54.09684
2021-11-27 02:09:00+00:00,275.3047,8.49,12.81,47.84626,-54.09684
2021-11-27 02:19:01+00:00,285.1031,8.49,12.73,47.84626,-54.09684
2021-11-27 02:29:01+00:00,288.1047,8.49,12.73,47.84626,-54.09684
2021-11-27 02:39:01+00:00,290.558,8.49,12.73,47.84626,-54.09684
2021-11-27 02:49:01+00:00,297.808,8.49,12.73,47.84626,-54.09684
2021-11-27 02:59:01+00:00,303.978,8.49,12.73,47.84626,-54.09684
2021-11-27 03:09:01+00:00,301.58799999999997,8.49,12.73,47.84626,-54.09684
2021-11-27 03:19:01+00:00,306.0213,8.41,12.73,47.84626,-54.09684
2021-11-27 03:29:01+00:00,310.8547,8.42,12.73,47.84626,-54.09684
2021-11-27 03:39:01+00:00,312.098,8.41,12.73,47.84626,-54.09684
2021-11-27 03:49:01+00:00,312.0564,8.47,12.73,47.84626,-54.09684
2021-11-27 03:59:01+00:00,320.568,8.5,12.73,47.84626,-54.09684
2021-11-27 04:09:01+00:00,324.528,8.5,12.73,47.84626,-54.09684
2021-11-27 04:19:00+00:00,320.9996,8.5,12.73,47.84626,-54.09684
2021-11-27 04:29:00+00:00,317.538,8.5,12.73,47.84626,-54.09684
2021-11-27 04:39:00+00:00,317.7896,8.5,12.73,47.84626,-54.09684
2021-11-27 04:49:00+00:00,321.2413,8.5,12.73,47.84626,-54.09684
2021-11-27 04:59:00+00:00,320.1746,8.5,12.73,47.84626,-54.09684
2021-11-27 05:09:00+00:00,317.6496,8.51,12.73,47.84626,-54.09684
2021-11-27 05:19:00+00:00,319.1646,8.5,12.73,47.84626,-54.09684
2021-11-27 05:29:00+00:00,316.3463,8.5,12.73,47.84626,-54.09684
2021-11-27 05:39:00+00:00,312.6514,8.5,12.73,47.84626,-54.09684
2021-11-27 05:49:00+00:00,312.493,8.51,12.73,47.84626,-54.09684
2021-11-27 05:59:00+00:00,314.5779,8.52,12.73,47.84626,-54.09684
2021-11-27 06:09:00+00:00,309.3947,8.5,12.73,47.84626,-54.09684
2021-11-27 06:19:00+00:00,304.77299999999997,8.52,12.73,47.84626,-54.09684
2021-11-27 06:29:00+00:00,306.4597,8.51,12.73,47.84626,-54.09684
2021-11-27 06:39:00+00:00,304.128,8.53,12.73,47.84626,-54.09684
2021-11-27 06:49:00+00:00,300.7263,8.51,12.73,47.84626,-54.09684
2021-11-27 06:59:00+00:00,303.4997,8.5,12.73,47.84626,-54.09684
2021-11-27 07:09:00+00:00,304.9846,8.51,12.73,47.84626,-54.09684
2021-11-27 07:19:00+00:00,292.5764,8.52,12.73,47.84626,-54.09684
2021-11-27 07:29:00+00:00,287.7647,8.5,12.73,47.84626,-54.09684
2021-11-27 07:39:00+00:00,284.0014,8.51,12.73,47.84626,-54.09684
2021-11-27 07:49:00+00:00,273.3981,8.53,12.73,47.84626,-54.09684
2021-11-27 07:59:00+00:00,259.9447,8.5,12.73,47.84626,-54.09684
2021-11-27 08:09:00+00:00,251.263,8.5,12.73,47.84626,-54.09684
2021-11-27 08:19:00+00:00,246.0297,8.5,12.73,47.84626,-54.09684
2021-11-27 08:29:00+00:00,250.2864,8.54,12.73,47.84626,-54.09684
2021-11-27 08:39:00+00:00,257.9181,8.57,12.73,47.84626,-54.09684
2021-11-27 08:49:00+00:00,262.4198,8.58,12.73,47.84626,-54.09684
2021-11-27 08:59:00+00:00,262.4414,8.54,12.73,47.84626,-54.09684
2021-11-27 09:09:00+00:00,257.863,8.56,12.73,47.84626,-54.09684
2021-11-27 09:19:01+00:00,253.9948,8.5,12.73,47.84626,-54.09684
2021-11-27 09:29:01+00:00,249.1964,8.5,12.73,47.84626,-54.09684
2021-11-27 09:39:01+00:00,239.3581,8.5,12.73,47.84626,-54.09684
2021-11-27 09:49:01+00:00,235.2097,8.5,12.73,47.84626,-54.09684
2021-11-27 09:59:01+00:00,233.3998,8.5,12.73,47.84626,-54.09684
2021-11-27 10:09:01+00:00,228.1348,8.5,12.73,47.84626,-54.09684
2021-11-27 10:19:00+00:00,232.4164,8.52,12.73,47.84626,-54.09684
2021-11-27 10:29:00+00:00,249.3214,8.53,12.73,47.84626,-54.09684
2021-11-27 10:39:00+00:00,252.2347,8.52,12.73,47.84626,-54.09684
2021-11-27 10:49:00+00:00,247.1997,8.55,12.73,47.84626,-54.09684
2021-11-27 10:59:00+00:00,247.8364,8.58,12.73,47.84626,-54.09684
2021-11-27 11:09:00+00:00,252.6298,8.6,12.73,47.84626,-54.09684
2021-11-27 11:19:01+00:00,249.3414,8.6,12.65,47.84626,-54.09684
2021-11-27 11:29:01+00:00,248.2615,8.6,12.65,47.84626,-54.09684
2021-11-27 11:39:01+00:00,249.7147,8.6,12.65,47.84626,-54.09684
2021-11-27 11:49:01+00:00,249.7631,8.6,12.65,47.84626,-54.09684
2021-11-27 11:59:01+00:00,250.4548,8.6,12.65,47.84626,-54.09684
2021-11-27 12:09:01+00:00,253.6298,8.6,12.65,47.84626,-54.09684
2021-11-27 12:19:01+00:00,263.8331,8.6,12.73,47.84626,-54.09684
2021-11-27 12:29:01+00:00,271.3198,8.6,12.73,47.84626,-54.09684
2021-11-27 12:39:01+00:00,275.0947,8.6,12.73,47.84626,-54.09684
2021-11-27 12:49:01+00:00,276.5798,8.6,12.73,47.84626,-54.09684
2021-11-27 12:59:01+00:00,279.2064,8.6,12.73,47.84626,-54.09684
2021-11-27 13:09:01+00:00,274.5447,8.6,12.73,47.84626,-54.09684
2021-11-27 13:19:01+00:00,270.1581,8.6,12.73,47.84626,-54.09684
2021-11-27 13:29:01+00:00,271.7464,8.63,12.73,47.84626,-54.09684
2021-11-27 13:39:01+00:00,276.7164,8.6,12.73,47.84626,-54.09684
2021-11-27 13:49:01+00:00,274.5131,8.6,12.73,47.84626,-54.09684
2021-11-27 13:59:01+00:00,279.0214,8.6,12.73,47.84626,-54.09684
2021-11-27 14:09:01+00:00,286.0997,8.62,12.73,47.84626,-54.09684
2021-11-27 14:19:00+00:00,291.4664,8.67,13.29,47.84626,-54.09684
2021-11-27 14:29:00+00:00,291.2197,8.7,13.29,47.84626,-54.09684
2021-11-27 14:39:00+00:00,305.218,8.6,13.29,47.84626,-54.09684
2021-11-27 14:49:00+00:00,312.6663,8.6,13.29,47.84626,-54.09684
2021-11-27 14:59:00+00:00,314.6914,8.6,13.29,47.84626,-54.09684
2021-11-27 15:09:00+00:00,318.3313,8.6,13.29,47.84626,-54.09684
2021-11-27 15:19:00+00:00,328.2429,8.6,13.29,47.84626,-54.09684
2021-11-27 15:29:00+00:00,324.168,8.6,13.29,47.84626,-54.09684
2021-11-27 15:39:00+00:00,322.353,8.65,13.29,47.84626,-54.09684
2021-11-27 15:49:00+00:00,325.348,8.64,13.29,47.84626,-54.09684
2021-11-27 15:59:00+00:00,331.7196,8.65,13.29,47.84626,-54.09684
2021-11-27 16:09:00+00:00,334.3897,8.65,13.29,47.84626,-54.09684
2021-11-27 16:19:00+00:00,338.6546,8.62,12.97,47.84626,-54.09684
2021-11-27 16:29:00+00:00,338.5063,8.61,12.97,47.84626,-54.09684
2021-11-27 16:39:00+00:00,340.8996,8.6,12.97,47.84626,-54.09684
2021-11-27 16:49:00+00:00,350.3214,8.6,12.97,47.84626,-54.09684
2021-11-27 16:59:00+00:00,357.2747,8.6,12.97,47.84626,-54.09684
2021-11-27 17:09:00+00:00,351.1562,8.67,12.97,47.84626,-54.09684
2021-11-27 17:19:01+00:00,349.4296,8.6,12.89,47.84626,-54.09684
2021-11-27 17:29:01+00:00,356.32300000000015,8.6,12.89,47.84626,-54.09684
2021-11-27 17:39:01+00:00,352.3396,8.7,12.89,47.84626,-54.09684
2021-11-27 17:49:01+00:00,344.713,8.68,12.89,47.84626,-54.09684
2021-11-27 17:59:01+00:00,352.8979,8.69,12.89,47.84626,-54.09684
2021-11-27 18:09:01+00:00,357.1712,8.69,12.89,47.84626,-54.09684
2021-11-27 18:19:00+00:00,345.5397,8.69,12.81,47.84626,-54.09684
2021-11-27 18:29:00+00:00,344.1146,8.68,12.81,47.84626,-54.09684
2021-11-27 18:39:00+00:00,353.80300000000005,8.69,12.81,47.84626,-54.09684
2021-11-27 18:49:00+00:00,350.9747,8.7,12.81,47.84626,-54.09684
2021-11-27 18:59:00+00:00,338.8613,8.7,12.81,47.84626,-54.09684
2021-11-27 19:09:00+00:00,335.2813,8.7,12.81,47.84626,-54.09684
2021-11-27 19:19:00+00:00,334.0997,8.7,12.73,47.84626,-54.09684
2021-11-27 19:29:00+00:00,322.8213,8.73,12.73,47.84626,-54.09684
2021-11-27 19:39:00+00:00,313.883,8.7,12.73,47.84626,-54.09684
2021-11-27 19:49:00+00:00,312.5031,8.7,12.73,47.84626,-54.09684
2021-11-27 19:59:00+00:00,308.6247,8.7,12.73,47.84626,-54.09684
2021-11-27 20:09:00+00:00,299.2996,8.7,12.73,47.84626,-54.09684
2021-11-27 20:19:00+00:00,296.683,8.7,12.73,47.84626,-54.09684
2021-11-27 20:29:00+00:00,291.6281,8.7,12.73,47.84626,-54.09684
2021-11-27 20:39:00+00:00,281.203,8.7,12.73,47.84626,-54.09684
2021-11-27 20:49:00+00:00,273.4597,8.64,12.73,47.84626,-54.09684
2021-11-27 20:59:00+00:00,267.1147,8.64,12.73,47.84626,-54.09684
2021-11-27 21:09:00+00:00,257.8247,8.62,12.73,47.84626,-54.09684
2021-11-27 21:19:00+00:00,251.6014,8.61,12.73,47.84626,-54.09684
2021-11-27 21:29:00+00:00,252.7014,8.6,12.73,47.84626,-54.09684
2021-11-27 21:39:00+00:00,251.8214,8.6,12.73,47.84626,-54.09684
2021-11-27 21:49:00+00:00,255.2447,8.6,12.73,47.84626,-54.09684
2021-11-27 21:59:00+00:00,256.7314,8.6,12.73,47.84626,-54.09684
2021-11-27 22:09:00+00:00,250.8981,8.6,12.73,47.84626,-54.09684
2021-11-27 22:19:01+00:00,241.2231,8.6,12.65,47.84626,-54.09684
2021-11-27 22:29:01+00:00,243.8564,8.6,12.65,47.84626,-54.09684
2021-11-27 22:39:01+00:00,249.4414,8.6,12.65,47.84626,-54.09684
2021-11-27 22:49:01+00:00,249.9948,8.6,12.65,47.84626,-54.09684
2021-11-27 22:59:01+00:00,247.5748,8.6,12.65,47.84626,-54.09684
2021-11-27 23:09:01+00:00,248.8881,8.6,12.65,47.84626,-54.09684
2021-11-27 23:19:00+00:00,244.8864,8.62,12.65,47.84626,-54.09684
2021-11-27 23:29:00+00:00,242.3097,8.65,12.65,47.84626,-54.09684
2021-11-27 23:39:00+00:00,247.938,8.66,12.65,47.84626,-54.09684
2021-11-27 23:49:00+00:00,251.7598,8.67,12.65,47.84626,-54.09684
2021-11-27 23:59:00+00:00,251.0347,8.67,12.65,47.84626,-54.09684
